EW8281 Weather Reports


time (UTC)temp
C
wind
direction
speed
KPH
gust
KPH
rain 1hr
cm
rain 24hr
cm
rain mn
cm
humidity
%
barometer
mb
20260508071516 7 331 0.0 0.0 0.00 0.64 0.00 96 1013.3
20260508070014 7 331 0.0 0.0 0.00 0.64 0.00 96 1013.3
20260508064515 7 331 0.0 0.0 0.00 0.66 0.00 96 1013.2
20260508063014 7 331 0.0 0.0 0.00 0.66 0.00 96 1013.3
20260508061513 7 331 0.0 0.0 0.00 0.66 0.00 96 1013.4
20260508060010 7 331 0.0 0.0 0.00 0.66 0.00 96 1013.2
20260508054508 8 331 0.0 0.0 0.00 0.66 0.00 96 1013.2
20260508053010 7 331 0.0 0.0 0.00 0.66 0.00 95 1013.0
20260508051504 8 331 0.0 0.0 0.00 0.66 0.00 95 1013.0
20260508050004 8 331 0.0 0.0 0.00 0.66 0.00 95 1012.9
20260508044502 8 331 0.0 0.0 0.00 0.69 0.00 95 1012.9
20260508043105 8 331 0.0 0.0 0.00 0.69 0.00 95 1012.6
20260508041617 8 331 0.0 0.0 0.00 0.69 0.00 95 1012.4
20260508040109 8 331 0.0 0.0 0.00 0.69 0.00 95 1012.5
20260508034553 9 331 0.0 0.0 0.00 0.76 0.69 95 1012.2
20260508033050 9 331 0.0 0.0 0.00 0.76 0.69 95 1012.2
20260508031547 10 331 0.0 0.0 0.00 0.76 0.69 95 1012.0
20260508030046 10 331 0.0 0.0 0.00 0.76 0.69 95 1012.0
20260508024550 10 331 0.0 0.0 0.00 0.79 0.69 95 1011.9
20260508023041 10 331 0.0 3.2 0.00 0.79 0.69 95 1011.6
20260508021541 10 331 0.0 0.0 0.00 0.79 0.69 95 1011.3
20260508020042 11 331 0.0 0.0 0.00 0.79 0.69 95 1011.1
20260508014534 11 331 0.0 6.4 0.00 0.81 0.69 95 1010.8
20260508013031 11 199 0.0 6.4 0.00 0.81 0.69 95 1010.5
20260508011529 11 25 0.0 1.6 0.00 0.81 0.69 94 1010.4
20260508010028 12 22 0.0 0.0 0.00 0.81 0.69 94 1010.2
20260508004526 12 22 0.0 0.0 0.00 0.84 0.69 94 1010.1
20260508003023 12 22 0.0 0.0 0.00 0.84 0.69 93 1010.0
20260508001522 13 22 0.0 1.6 0.00 0.84 0.69 93 1010.1
20260508000020 13 323 0.0 0.0 0.00 0.84 0.69 92 1009.9
20260507234520 13 323 0.0 6.4 0.00 0.84 0.69 92 1009.8
20260507233031 13 345 0.0 6.4 0.00 0.84 0.69 91 1009.6
20260507231517 13 75 1.6 8.0 0.00 0.84 0.69 92 1009.2
20260507230017 13 47 1.6 8.0 0.00 0.84 0.69 93 1008.9
20260507224517 13 25 0.0 6.4 0.00 0.84 0.69 93 1008.8
20260507223017 13 351 0.0 9.7 0.00 0.84 0.69 92 1008.9
20260507221520 13 94 0.0 6.4 0.00 0.84 0.69 92 1008.5
20260507220015 13 67 3.2 14.5 0.00 0.84 0.69 92 1008.5
20260507214516 13 57 1.6 12.9 0.00 0.84 0.69 92 1008.4
20260507213020 13 5 1.6 12.9 0.00 0.84 0.69 92 1008.2
20260507211513 13 355 1.6 14.5 0.00 0.84 0.69 93 1008.2
20260507210012 13 26 3.2 12.9 0.00 0.84 0.69 94 1008.2
20260507204517 13 71 3.2 14.5 0.03 0.84 0.69 95 1008.4
20260507203011 13 83 3.2 17.7 0.03 0.84 0.69 94 1008.1
20260507201514 13 28 6.4 17.7 0.03 0.84 0.69 94 1008.3
20260507200010 13 50 1.6 11.3 0.03 0.84 0.69 94 1008.4
20260507194508 13 34 3.2 12.9 0.00 0.81 0.66 93 1008.4
20260507193003 13 83 3.2 12.9 0.00 0.81 0.66 92 1008.4
20260507191600 13 60 1.6 19.3 0.00 0.81 0.66 92 1007.7
20260507190058 14 14 1.6 12.9 0.00 0.81 0.66 92 1008.3
20260507184555 14 55 8.0 19.3 0.00 0.81 0.66 92 1008.1
20260507183054 15 71 4.8 16.1 0.00 0.81 0.66 92 1008.1
20260507181556 16 347 3.2 17.7 0.00 0.81 0.66 92 1007.9
20260507180050 16 44 1.6 9.7 0.00 0.81 0.66 92 1007.9
20260507174557 16 73 3.2 14.5 0.00 0.81 0.66 92 1007.9
20260507173119 15 34 1.6 14.5 0.00 0.81 0.66 93 1008.1
20260507171554 16 35 6.4 17.7 0.00 0.81 0.66 92 1008.5
20260507170055 16 19 4.8 19.3 0.00 0.81 0.66 92 1008.4
20260507164552 16 47 3.2 14.5 0.05 0.81 0.66 94 1007.9
20260507163042 16 360 1.6 16.1 0.05 0.81 0.66 94 1007.8
20260507161556 16 59 3.2 16.1 0.05 0.81 0.66 95 1007.9
20260507160041 16 31 1.6 9.7 0.05 0.81 0.66 95 1008.0
20260507154541 16 57 1.6 16.1 0.00 0.76 0.61 94 1008.1
20260507153033 16 57 1.6 11.3 0.00 0.76 0.61 95 1008.3
20260507151531 17 314 0.0 6.4 0.00 0.76 0.61 96 1008.3
20260507150031 17 32 3.2 4.8 0.00 0.76 0.61 96 1008.3
20260507144533 17 39 0.0 6.4 0.00 0.76 0.61 96 1008.1
20260507143029 17 47 0.0 0.0 0.03 0.76 0.61 96 1007.8
20260507141528 17 164 0.0 0.0 0.03 0.76 0.61 97 1008.0
20260507140028 17 164 0.0 0.0 0.05 0.76 0.61 97 1007.8
20260507134529 17 164 0.0 0.0 0.10 0.76 0.61 97 1007.8
20260507133029 17 164 0.0 0.0 0.15 0.71 0.58 96 1007.5
20260507131531 17 159 0.0 3.2 0.20 0.71 0.58 96 1007.5
20260507130027 17 161 0.0 1.6 0.20 0.71 0.56 96 1008.3
20260507124525 17 161 0.0 1.6 0.20 0.66 0.51 96 1008.9
20260507123028 17 161 0.0 0.0 0.10 0.56 0.41 96 1008.9
20260507121523 17 160 0.0 1.6 0.08 0.53 0.38 96 1008.9
20260507120038 17 230 0.0 0.0 0.05 0.51 0.36 96 1008.4
20260507114522 17 230 0.0 1.6 0.00 0.46 0.30 96 1008.7
20260507113037 17 136 0.0 0.0 0.00 0.46 0.30 96 1008.5
20260507111522 17 136 0.0 6.4 0.00 0.46 0.30 96 1008.2
20260507110025 17 146 0.0 3.2 0.00 0.46 0.30 96 1008.1
20260507104521 17 269 0.0 0.0 0.00 0.46 0.30 96 1008.2
20260507103021 16 269 0.0 1.6 0.00 0.46 0.30 96 1008.2
20260507101521 16 9 0.0 1.6 0.00 0.46 0.30 96 1007.8
20260507100026 17 9 0.0 1.6 0.00 0.46 0.30 96 1008.2
20260507094519 17 355 0.0 1.6 0.00 0.46 0.30 96 1008.1
20260507093018 17 355 0.0 0.0 0.00 0.46 0.30 96 1008.2
20260507091521 17 355 0.0 0.0 0.00 0.46 0.30 96 1008.0
20260507090016 17 355 0.0 1.6 0.00 0.46 0.30 96 1008.6
20260507084516 16 360 0.0 3.2 0.00 0.46 0.30 96 1008.4
20260507083015 17 189 0.0 3.2 0.03 0.46 0.30 96 1007.8
20260507081514 17 283 0.0 1.6 0.03 0.46 0.30 96 1008.0
20260507080013 17 289 0.0 3.2 0.20 0.46 0.30 96 1008.1
20260507074522 17 169 1.6 11.3 0.28 0.46 0.30 95 1007.8
20260507073012 17 235 3.2 11.3 0.25 0.43 0.28 95 1008.0